Regional Weather Roundup
Issued by NWS

Home | Current Version | Previous Version | Text Only | Print | Product List | Glossary Off
Versions: 1 2 3 4 5 6 7 8 9 10 11 12 13 14 15 16 17 18 19 20 21 22 23 24 25 26 27 28 29 30 31 32 33 34 35 36 37 38 39 40 41 42 43 44 45 46 47 48 49 50

000
ASUS43 KOAX 210702
RWRNE

WEATHER ROUNDUP FOR NEBRASKA
NATIONAL WEATHER SERVICE OMAHA NE
200 AM CDT MON APR 21 2014

NOTES: SATELLITE DATA IS BEING USED TO AUGMENT CLOUD COVER ABOVE
       12000 FEET.
       "FAIR" INDICATES FEW OR NO CLOUDS BELOW 12,000 FEET WITH NO
       SIGNIFICANT WEATHER AND/OR OBSTRUCTIONS TO VISIBILITY.

  * THESE STATIONS DO NOT REPORT WEATHER SUCH AS RAIN...SNOW OR FOG.

NEZ001>004-019>022-054>056-210800-
NEBRASKA PANHANDLE

CITY           SKY/WX    TMP DP  RH WIND       PRES   REMARKS
SCOTTSBLUFF    PTCLDY    51  31  46 NW5       30.18R
ALLIANCE       CLEAR     44  31  60 N13       30.13R
CHADRON        CLEAR     40  32  73 W3        30.17R
KIMBALL        MOCLDY    46  30  53 N7        30.17R
SIDNEY         CLEAR     48  31  51 N13       30.14R
$$

NEZ057>060-069>072-079>082-210800-
SOUTHWEST NEBRASKA

CITY           SKY/WX    TMP DP  RH WIND       PRES   REMARKS
NORTH PLATTE   PTCLDY    56  42  59 N13       30.03S
IMPERIAL       CLEAR     53  41  63 N13       30.03R
LEXINGTON      RAIN      59  54  83 W12       30.01R
MCCOOK         PTCLDY    55  53  93 CALM      30.00R
OGALLALA       CLEAR     57  33  40 N22G28    30.06R
$$

NEZ005>010-023>029-035>040-094-210800-
NORTH CENTRAL NEBRASKA

CITY           SKY/WX    TMP DP  RH WIND       PRES   REMARKS
VALENTINE      PTCLDY    56  28  34 N16G24    30.06R
AINSWORTH      CLEAR     56  34  43 N23G29    30.04R
BROKEN BOW     CLOUDY    57  53  86 SE8G25    30.01R THUNDER
O`NEILL        CLOUDY    62  48  60 W18       29.95R
ORD            CLOUDY    58  53  84 SW7       29.97F
THEDFORD       PTCLDY    57  32  38 N16G23    30.05R
$$

NEZ041-046>049-061>064-073>077-083>087-210800-
SOUTH CENTRAL NEBRASKA

CITY           SKY/WX    TMP DP  RH WIND       PRES   REMARKS
GRAND ISLAND   CLOUDY    59  52  77 NW20G25   30.01R
AURORA         CLOUDY    57  53  86 W5        29.98R
HASTINGS       CLOUDY    59  53  80 SW5       29.96S
HEBRON         CLOUDY    62  56  81 SW5       29.96S
HOLDREGE       CLOUDY    56  53  88 SW5       29.97S
KEARNEY *      CLOUDY    55  54  94 NW5       29.98R
YORK           CLOUDY    57  57 100 S8        29.97S
$$

NEZ011>018-030>034-042>045-210800-
NORTHEAST NEBRASKA

CITY           SKY/WX    TMP DP  RH WIND       PRES   REMARKS
NORFOLK        MOCLDY    61  53  75 SW5       29.92F
ALBION         MOCLDY    60  49  65 W10       29.95F
BLAIR          CLOUDY    63  55  75 SE5       29.95S
COLUMBUS *     MOCLDY    59  52  77 SW12      29.96S
FREMONT        CLOUDY    63  55  75 S10       29.94F
TEKAMAH        CLOUDY    63  55  75 SE14      29.94S
$$

NEZ050>053-065>068-078-088>093-210800-
SOUTHEAST NEBRASKA

CITY           SKY/WX    TMP DP  RH WIND       PRES   REMARKS
LINCOLN        CLOUDY    60  54  80 SW5       29.96F
OMAHA EPPLEY   CLOUDY    63  57  81 SE3       29.95F
BEATRICE       CLOUDY    62  56  81 S8        29.96F
FALLS CITY     CLOUDY    65  57  75 S9        29.96F
NEBRASKA CITY  CLOUDY    62  58  87 S8        29.96F
PLATTSMOUTH    CLOUDY    63  56  79 S8        29.96S
$$

NEZ044-045-051>053-067-210800-
OMAHA AREA

CITY           SKY/WX    TMP DP  RH WIND       PRES   REMARKS
OMAHA EPPLEY   CLOUDY    63  57  81 SE3       29.95F
BLAIR          CLOUDY    63  55  75 SE5       29.95S
FREMONT        CLOUDY    63  55  75 S10       29.94F
MILLARD        CLOUDY    63  56  76 CALM      29.94F
OFFUTT AFB     LGT RAIN  59  59 100 SE5       29.95F
PLATTSMOUTH    CLOUDY    63  56  79 S8        29.96S
WAHOO          FAIR      60  54  80 S6        29.95S
$$



USA.gov is the U.S. government's official web portal to all federal, state and local government web resources and services.